| time (UTC) | temp C | wind direction | speed KPH | gust KPH | rain 1hr cm | rain 24hr cm | rain mn cm | humidity % | barometer mb |
| 20260901234021 | 25 | 360 | 14.5 | 0.0 | 0.00 | 0.00 | 0.00 | 39 | 1010.6 |
| 20260901233520 | 25 | 360 | 14.5 | 0.0 | 0.00 | 0.00 | 0.00 | 39 | 1010.6 |
| 20260901233019 | 25 | 360 | 12.9 | 0.0 | 0.00 | 0.00 | 0.00 | 38 | 1010.5 |
| 20260901232519 | 25 | 360 | 14.5 | 0.0 | 0.00 | 0.00 | 0.00 | 38 | 1010.5 |
| 20260901232020 | 25 | 360 | 14.5 | 0.0 | 0.00 | 0.00 | 0.00 | 38 | 1010.5 |
| 20260901231521 | 25 | 360 | 14.5 | 0.0 | 0.00 | 0.00 | 0.00 | 37 | 1010.5 |
| 20260901231022 | 25 | 360 | 14.5 | 0.0 | 0.00 | 0.00 | 0.00 | 37 | 1010.6 |
| 20260901230519 | 25 | 360 | 14.5 | 0.0 | 0.00 | 0.00 | 0.00 | 37 | 1010.5 |
| 20260901230019 | 25 | 360 | 14.5 | 0.0 | 0.00 | 0.00 | 0.00 | 37 | 1010.6 |
| 20260901225518 | 25 | 360 | 16.1 | 0.0 | 0.00 | 0.00 | 0.00 | 38 | 1010.6 |
| 20260901225017 | 25 | 360 | 14.5 | 0.0 | 0.00 | 0.00 | 0.00 | 37 | 1010.7 |
| 20260901224522 | 25 | 360 | 16.1 | 0.0 | 0.00 | 0.00 | 0.00 | 38 | 1010.7 |
| 20260901224016 | 26 | 360 | 16.1 | 0.0 | 0.00 | 0.00 | 0.00 | 38 | 1010.8 |
| 20260901223518 | 26 | 360 | 16.1 | 0.0 | 0.00 | 0.00 | 0.00 | 38 | 1010.8 |
| 20260901223024 | 25 | 360 | 17.7 | 0.0 | 0.00 | 0.00 | 0.00 | 38 | 1010.8 |
| 20260901222517 | 26 | 360 | 16.1 | 0.0 | 0.00 | 0.00 | 0.00 | 38 | 1010.9 |
| 20260901222019 | 26 | 360 | 16.1 | 0.0 | 0.00 | 0.00 | 0.00 | 39 | 1010.9 |
| 20260901221516 | 26 | 360 | 16.1 | 0.0 | 0.00 | 0.00 | 0.00 | 39 | 1011.1 |
| 20260901221015 | 26 | 360 | 14.5 | 0.0 | 0.00 | 0.00 | 0.00 | 38 | 1011.1 |
| 20260901220514 | 26 | 360 | 14.5 | 0.0 | 0.00 | 0.00 | 0.00 | 38 | 1011.2 |
| 20260901220027 | 26 | 360 | 12.9 | 0.0 | 0.00 | 0.00 | 0.00 | 38 | 1011.3 |
| 20260901215514 | 26 | 360 | 14.5 | 0.0 | 0.00 | 0.00 | 0.00 | 39 | 1011.3 |
| 20260901215013 | 26 | 360 | 14.5 | 0.0 | 0.00 | 0.00 | 0.00 | 39 | 1011.4 |
| 20260901214512 | 26 | 360 | 12.9 | 0.0 | 0.00 | 0.00 | 0.00 | 38 | 1011.5 |
| 20260901214011 | 26 | 360 | 12.9 | 0.0 | 0.00 | 0.00 | 0.00 | 38 | 1011.5 |
| 20260901213512 | 26 | 360 | 12.9 | 0.0 | 0.00 | 0.00 | 0.00 | 37 | 1011.6 |
| 20260901213013 | 26 | 360 | 12.9 | 0.0 | 0.00 | 0.00 | 0.00 | 38 | 1011.6 |
| 20260901212512 | 26 | 360 | 11.3 | 0.0 | 0.00 | 0.00 | 0.00 | 38 | 1011.6 |
| 20260901212011 | 26 | 360 | 12.9 | 0.0 | 0.00 | 0.00 | 0.00 | 38 | 1011.7 |
| 20260901211510 | 26 | 360 | 11.3 | 0.0 | 0.00 | 0.00 | 0.00 | 37 | 1011.7 |
| 20260901211010 | 26 | 360 | 11.3 | 0.0 | 0.00 | 0.00 | 0.00 | 37 | 1011.7 |
| 20260901210510 | 26 | 360 | 11.3 | 0.0 | 0.00 | 0.00 | 0.00 | 38 | 1011.6 |
| 20260901210012 | 26 | 360 | 11.3 | 0.0 | 0.00 | 0.00 | 0.00 | 37 | 1011.6 |
| 20260901205510 | 26 | 360 | 11.3 | 0.0 | 0.00 | 0.00 | 0.00 | 37 | 1011.7 |
| 20260901205008 | 26 | 360 | 9.7 | 0.0 | 0.00 | 0.00 | 0.00 | 37 | 1011.8 |
| 20260901204508 | 26 | 360 | 9.7 | 0.0 | 0.00 | 0.00 | 0.00 | 37 | 1011.9 |
| 20260901204111 | 26 | 360 | 9.7 | 0.0 | 0.00 | 0.00 | 0.00 | 37 | 1011.9 |
| 20260901203507 | 26 | 360 | 9.7 | 0.0 | 0.00 | 0.00 | 0.00 | 36 | 1012.0 |
| 20260901203008 | 26 | 360 | 8.0 | 0.0 | 0.00 | 0.00 | 0.00 | 37 | 1012.0 |
| 20260901202506 | 26 | 360 | 8.0 | 0.0 | 0.00 | 0.00 | 0.00 | 36 | 1012.1 |
| 20260901202007 | 26 | 360 | 8.0 | 0.0 | 0.00 | 0.00 | 0.00 | 36 | 1012.1 |
| 20260901201505 | 26 | 360 | 8.0 | 0.0 | 0.00 | 0.00 | 0.00 | 37 | 1012.1 |
| 20260901201005 | 26 | 360 | 8.0 | 0.0 | 0.00 | 0.00 | 0.00 | 36 | 1012.2 |
| 20260901200506 | 26 | 360 | 8.0 | 0.0 | 0.00 | 0.00 | 0.00 | 37 | 1012.3 |
| 20260901200004 | 26 | 360 | 8.0 | 0.0 | 0.00 | 0.00 | 0.00 | 36 | 1012.4 |
| 20260901195503 | 26 | 360 | 9.7 | 0.0 | 0.00 | 0.00 | 0.00 | 36 | 1012.5 |
| 20260901195002 | 26 | 360 | 8.0 | 0.0 | 0.00 | 0.00 | 0.00 | 37 | 1012.5 |
| 20260901194504 | 26 | 360 | 8.0 | 0.0 | 0.00 | 0.00 | 0.00 | 38 | 1012.6 |
| 20260901194002 | 26 | 360 | 8.0 | 0.0 | 0.00 | 0.00 | 0.00 | 38 | 1012.6 |
| 20260901193502 | 26 | 360 | 6.4 | 0.0 | 0.00 | 0.00 | 0.00 | 38 | 1012.6 |
| 20260901193003 | 26 | 360 | 6.4 | 0.0 | 0.00 | 0.00 | 0.00 | 37 | 1012.8 |
| 20260901192600 | 26 | 360 | 6.4 | 0.0 | 0.00 | 0.00 | 0.00 | 36 | 1012.8 |
| 20260901192100 | 26 | 360 | 6.4 | 0.0 | 0.00 | 0.00 | 0.00 | 36 | 1012.9 |
| 20260901191600 | 26 | 360 | 8.0 | 0.0 | 0.00 | 0.00 | 0.00 | 36 | 1013.0 |
| 20260901191058 | 26 | 360 | 8.0 | 0.0 | 0.00 | 0.00 | 0.00 | 38 | 1013.0 |
| 20260901190558 | 25 | 360 | 8.0 | 0.0 | 0.00 | 0.00 | 0.00 | 38 | 1013.0 |
| 20260901190108 | 25 | 360 | 8.0 | 0.0 | 0.00 | 0.00 | 0.00 | 38 | 1013.1 |
| 20260901185558 | 25 | 360 | 8.0 | 0.0 | 0.00 | 0.00 | 0.00 | 37 | 1013.2 |
| 20260901185057 | 25 | 360 | 9.7 | 0.0 | 0.00 | 0.00 | 0.00 | 37 | 1013.3 |
| 20260901184558 | 25 | 360 | 9.7 | 0.0 | 0.00 | 0.00 | 0.00 | 37 | 1013.3 |
| 20260901184057 | 25 | 360 | 8.0 | 0.0 | 0.00 | 0.00 | 0.00 | 37 | 1013.3 |
| 20260901183056 | 25 | 360 | 8.0 | 0.0 | 0.00 | 0.00 | 0.00 | 37 | 1013.3 |
| 20260901182556 | 25 | 360 | 8.0 | 0.0 | 0.00 | 0.00 | 0.00 | 37 | 1013.4 |
| 20260901182056 | 25 | 360 | 9.7 | 0.0 | 0.00 | 0.00 | 0.00 | 37 | 1013.5 |
| 20260901181601 | 25 | 113 | 9.7 | 0.0 | 0.00 | 0.00 | 0.00 | 37 | 1013.6 |
| 20260901181054 | 25 | 90 | 9.7 | 0.0 | 0.00 | 0.00 | 0.00 | 37 | 1013.7 |
| 20260901180554 | 24 | 111 | 11.3 | 0.0 | 0.00 | 0.00 | 0.00 | 37 | 1013.8 |
| 20260901180053 | 24 | 115 | 9.7 | 0.0 | 0.00 | 0.00 | 0.00 | 37 | 1013.8 |
| 20260901175553 | 25 | 115 | 8.0 | 0.0 | 0.00 | 0.00 | 0.00 | 37 | 1013.8 |
| 20260901175053 | 25 | 110 | 6.4 | 0.0 | 0.00 | 0.00 | 0.00 | 37 | 1013.8 |
| 20260901174553 | 25 | 113 | 6.4 | 0.0 | 0.00 | 0.00 | 0.00 | 36 | 1013.8 |
| 20260901174053 | 25 | 79 | 6.4 | 0.0 | 0.00 | 0.00 | 0.00 | 37 | 1013.8 |
| 20260901173052 | 24 | 78 | 8.0 | 0.0 | 0.00 | 0.00 | 0.00 | 37 | 1013.8 |
| 20260901172551 | 24 | 86 | 9.7 | 0.0 | 0.00 | 0.00 | 0.00 | 38 | 1013.9 |
| 20260901172050 | 24 | 360 | 9.7 | 0.0 | 0.00 | 0.00 | 0.00 | 39 | 1013.9 |
| 20260901171605 | 23 | 84 | 8.0 | 0.0 | 0.00 | 0.00 | 0.00 | 40 | 1013.9 |
| 20260901171048 | 23 | 87 | 8.0 | 0.0 | 0.00 | 0.00 | 0.00 | 40 | 1013.8 |
| 20260901170549 | 23 | 107 | 6.4 | 0.0 | 0.00 | 0.00 | 0.00 | 40 | 1013.9 |
| 20260901170055 | 23 | 107 | 8.0 | 0.0 | 0.00 | 0.00 | 0.00 | 39 | 1014.0 |
| 20260901165550 | 23 | 105 | 8.0 | 0.0 | 0.00 | 0.00 | 0.00 | 42 | 1014.0 |
| 20260901165047 | 23 | 107 | 6.4 | 0.0 | 0.00 | 0.00 | 0.00 | 41 | 1014.1 |
| 20260901164551 | 23 | 92 | 6.4 | 0.0 | 0.00 | 0.00 | 0.00 | 42 | 1014.0 |
| 20260901164044 | 23 | 360 | 4.8 | 0.0 | 0.00 | 0.00 | 0.00 | 44 | 1014.0 |
| 20260901163042 | 22 | 134 | 4.8 | 0.0 | 0.00 | 0.00 | 0.00 | 47 | 1014.1 |
| 20260901162544 | 22 | 130 | 4.8 | 0.0 | 0.00 | 0.00 | 0.00 | 47 | 1014.1 |
| 20260901162039 | 22 | 360 | 4.8 | 0.0 | 0.00 | 0.00 | 0.00 | 50 | 1014.1 |
| 20260901161540 | 21 | 360 | 4.8 | 0.0 | 0.00 | 0.00 | 0.00 | 50 | 1014.2 |
| 20260901161036 | 21 | 360 | 4.8 | 0.0 | 0.00 | 0.00 | 0.00 | 52 | 1014.2 |
| 20260901160536 | 21 | 135 | 4.8 | 0.0 | 0.00 | 0.00 | 0.00 | 54 | 1014.2 |
| 20260901160038 | 21 | 134 | 4.8 | 0.0 | 0.00 | 0.00 | 0.00 | 54 | 1014.2 |
| 20260901155532 | 20 | 360 | 4.8 | 0.0 | 0.00 | 0.00 | 0.00 | 56 | 1014.1 |
| 20260901155032 | 20 | 360 | 4.8 | 0.0 | 0.00 | 0.00 | 0.00 | 56 | 1014.2 |
| 20260901154529 | 20 | 360 | 4.8 | 0.0 | 0.00 | 0.00 | 0.00 | 57 | 1014.2 |
| 20260901154028 | 19 | 161 | 6.4 | 0.0 | 0.00 | 0.00 | 0.00 | 58 | 1014.3 |
| 20260901153028 | 18 | 360 | 4.8 | 0.0 | 0.00 | 0.00 | 0.00 | 57 | 1014.4 |
| 20260901152526 | 18 | 360 | 4.8 | 0.0 | 0.00 | 0.00 | 0.00 | 59 | 1014.3 |
| 20260901152025 | 18 | 360 | 3.2 | 0.0 | 0.00 | 0.00 | 0.00 | 60 | 1014.4 |
| 20260901151523 | 18 | 360 | 3.2 | 0.0 | 0.00 | 0.00 | 0.00 | 62 | 1014.5 |
| 20260901151025 | 17 | 360 | 3.2 | 0.0 | 0.00 | 0.00 | 0.00 | 62 | 1014.5 |
| 20260901150522 | 17 | 360 | 1.6 | 0.0 | 0.00 | 0.00 | 0.00 | 62 | 1014.5 |
| 20260901150021 | 17 | 360 | 1.6 | 0.0 | 0.00 | 0.00 | 0.00 | 63 | 1014.5 |
| 20260901145520 | 17 | 360 | 1.6 | 0.0 | 0.00 | 0.00 | 0.00 | 63 | 1014.5 |
| 20260901145019 | 17 | 360 | 1.6 | 0.0 | 0.00 | 0.00 | 0.00 | 64 | 1014.5 |
| 20260901144517 | 16 | 360 | 1.6 | 0.0 | 0.00 | 0.00 | 0.00 | 65 | 1014.4 |
| 20260901144017 | 16 | 360 | 1.6 | 0.0 | 0.00 | 0.00 | 0.00 | 68 | 1014.6 |
| 20260901143014 | 15 | 322 | 1.6 | 0.0 | 0.00 | 0.00 | 0.00 | 71 | 1014.5 |
| 20260901142514 | 15 | 322 | 1.6 | 0.0 | 0.00 | 0.00 | 0.00 | 73 | 1014.6 |
| 20260901142012 | 14 | 322 | 0.0 | 0.0 | 0.00 | 0.00 | 0.00 | 74 | 1014.7 |
| 20260901141517 | 14 | 322 | 0.0 | 0.0 | 0.00 | 0.00 | 0.00 | 75 | 1014.7 |
| 20260901141010 | 13 | 322 | 1.6 | 0.0 | 0.00 | 0.00 | 0.00 | 76 | 1014.7 |
| 20260901140508 | 13 | 322 | 1.6 | 0.0 | 0.00 | 0.00 | 0.00 | 77 | 1014.7 |
| 20260901140007 | 13 | 322 | 1.6 | 0.0 | 0.00 | 0.00 | 0.00 | 79 | 1014.7 |
| 20260901135507 | 13 | 360 | 0.0 | 0.0 | 0.00 | 0.00 | 0.00 | 83 | 1014.7 |
| 20260901135004 | 12 | 360 | 0.0 | 0.0 | 0.00 | 0.00 | 0.00 | 86 | 1014.8 |
| 20260901134503 | 12 | 322 | 0.0 | 0.0 | 0.00 | 0.00 | 0.00 | 88 | 1014.7 |
| 20260901134004 | 11 | 360 | 1.6 | 0.0 | 0.00 | 0.00 | 0.00 | 89 | 1014.7 |
| 20260901133102 | 10 | 360 | 1.6 | 0.0 | 0.00 | 0.00 | 0.00 | 91 | 1014.7 |
| 20260901132600 | 10 | 360 | 1.6 | 0.0 | 0.00 | 0.00 | 0.00 | 91 | 1014.7 |
| 20260901132058 | 9 | 360 | 1.6 | 0.0 | 0.00 | 0.00 | 0.00 | 92 | 1014.6 |
| 20260901131559 | 8 | 360 | 0.0 | 0.0 | 0.00 | 0.00 | 0.00 | 93 | 1014.6 |
| 20260901131055 | 7 | 360 | 0.0 | 0.0 | 0.00 | 0.00 | 0.00 | 92 | 1014.5 |
| 20260901130554 | 7 | 360 | 0.0 | 0.0 | 0.00 | 0.00 | 0.00 | 92 | 1014.4 |
| 20260901130053 | 7 | 360 | 0.0 | 0.0 | 0.00 | 0.00 | 0.00 | 92 | 1014.4 |
| 20260901125553 | 6 | 360 | 0.0 | 0.0 | 0.00 | 0.00 | 0.00 | 91 | 1014.3 |
| 20260901125053 | 6 | 360 | 1.6 | 0.0 | 0.00 | 0.00 | 0.00 | 91 | 1014.3 |
| 20260901124558 | 5 | 360 | 1.6 | 0.0 | 0.00 | 0.00 | 0.00 | 90 | 1014.4 |
| 20260901124053 | 5 | 360 | 0.0 | 0.0 | 0.00 | 0.00 | 0.00 | 90 | 1014.4 |
| 20260901123054 | 5 | 360 | 0.0 | 0.0 | 0.00 | 0.00 | 0.00 | 90 | 1014.4 |
| 20260901122554 | 5 | 360 | 1.6 | 0.0 | 0.00 | 0.00 | 0.00 | 89 | 1014.2 |
| 20260901122055 | 6 | 360 | 1.6 | 0.0 | 0.00 | 0.00 | 0.00 | 89 | 1014.3 |
| 20260901121557 | 6 | 360 | 1.6 | 0.0 | 0.00 | 0.00 | 0.00 | 89 | 1014.3 |
| 20260901121052 | 6 | 360 | 0.0 | 0.0 | 0.00 | 0.00 | 0.00 | 89 | 1014.3 |
| 20260901120552 | 6 | 360 | 0.0 | 0.0 | 0.00 | 0.00 | 0.00 | 90 | 1014.4 |
| 20260901120051 | 6 | 360 | 0.0 | 0.0 | 0.00 | 0.00 | 0.00 | 89 | 1014.4 |
| 20260901115551 | 6 | 360 | 0.0 | 0.0 | 0.00 | 0.00 | 0.00 | 89 | 1014.3 |
| 20260901115050 | 6 | 360 | 1.6 | 0.0 | 0.00 | 0.00 | 0.00 | 89 | 1014.4 |
| 20260901114558 | 6 | 360 | 1.6 | 0.0 | 0.00 | 0.00 | 0.00 | 89 | 1014.3 |
| 20260901114049 | 6 | 360 | 3.2 | 0.0 | 0.00 | 0.00 | 0.00 | 91 | 1014.2 |
| 20260901113049 | 6 | 360 | 1.6 | 0.0 | 0.00 | 0.00 | 0.00 | 90 | 1014.0 |
| 20260901112547 | 6 | 360 | 1.6 | 0.0 | 0.00 | 0.00 | 0.00 | 89 | 1014.1 |
| 20260901112047 | 6 | 360 | 1.6 | 0.0 | 0.00 | 0.00 | 0.00 | 89 | 1014.0 |
| 20260901111548 | 6 | 360 | 1.6 | 0.0 | 0.00 | 0.00 | 0.00 | 89 | 1013.9 |
| 20260901111046 | 6 | 360 | 0.0 | 0.0 | 0.00 | 0.00 | 0.00 | 89 | 1013.9 |
| 20260901110546 | 6 | 360 | 1.6 | 0.0 | 0.00 | 0.00 | 0.00 | 89 | 1013.9 |
| 20260901110051 | 6 | 360 | 3.2 | 0.0 | 0.00 | 0.00 | 0.00 | 88 | 1013.9 |
| 20260901105546 | 6 | 360 | 3.2 | 0.0 | 0.00 | 0.00 | 0.00 | 88 | 1013.9 |
| 20260901105045 | 6 | 360 | 0.0 | 0.0 | 0.00 | 0.00 | 0.00 | 88 | 1014.0 |
| 20260901104544 | 6 | 360 | 0.0 | 0.0 | 0.00 | 0.00 | 0.00 | 88 | 1014.1 |
| 20260901104043 | 6 | 360 | 0.0 | 0.0 | 0.00 | 0.00 | 0.00 | 88 | 1014.0 |
| 20260901103044 | 6 | 360 | 0.0 | 0.0 | 0.00 | 0.00 | 0.00 | 88 | 1013.9 |
| 20260901102545 | 6 | 360 | 0.0 | 0.0 | 0.00 | 0.00 | 0.00 | 88 | 1013.7 |
| 20260901102044 | 6 | 360 | 0.0 | 0.0 | 0.00 | 0.00 | 0.00 | 89 | 1013.9 |
| 20260901101545 | 6 | 360 | 0.0 | 0.0 | 0.00 | 0.00 | 0.00 | 89 | 1013.8 |
| 20260901101043 | 6 | 360 | 0.0 | 0.0 | 0.00 | 0.00 | 0.00 | 88 | 1013.7 |
| 20260901100543 | 6 | 360 | 0.0 | 0.0 | 0.00 | 0.00 | 0.00 | 88 | 1013.5 |
| 20260901100046 | 6 | 360 | 0.0 | 0.0 | 0.00 | 0.00 | 0.00 | 88 | 1013.4 |
| 20260901095543 | 6 | 360 | 0.0 | 0.0 | 0.00 | 0.00 | 0.00 | 87 | 1013.4 |
| 20260901095042 | 6 | 360 | 1.6 | 0.0 | 0.00 | 0.00 | 0.00 | 88 | 1013.4 |
| 20260901094542 | 6 | 360 | 3.2 | 0.0 | 0.00 | 0.00 | 0.00 | 87 | 1013.5 |
| 20260901094043 | 6 | 360 | 3.2 | 0.0 | 0.00 | 0.00 | 0.00 | 87 | 1013.5 |
| 20260901093040 | 6 | 360 | 1.6 | 0.0 | 0.00 | 0.00 | 0.00 | 86 | 1013.5 |
| 20260901092543 | 6 | 360 | 0.0 | 0.0 | 0.00 | 0.00 | 0.00 | 86 | 1013.6 |
| 20260901092038 | 6 | 360 | 1.6 | 0.0 | 0.00 | 0.00 | 0.00 | 87 | 1013.5 |
| 20260901091547 | 6 | 360 | 1.6 | 0.0 | 0.00 | 0.00 | 0.00 | 86 | 1013.6 |
| 20260901091036 | 6 | 360 | 0.0 | 0.0 | 0.00 | 0.00 | 0.00 | 86 | 1013.5 |
| 20260901090537 | 7 | 360 | 0.0 | 0.0 | 0.00 | 0.00 | 0.00 | 87 | 1013.7 |
| 20260901090036 | 7 | 360 | 0.0 | 0.0 | 0.00 | 0.00 | 0.00 | 86 | 1013.6 |
| 20260901085535 | 7 | 360 | 1.6 | 0.0 | 0.00 | 0.00 | 0.00 | 86 | 1013.7 |
| 20260901085035 | 7 | 360 | 0.0 | 0.0 | 0.00 | 0.00 | 0.00 | 86 | 1013.7 |
| 20260901084534 | 7 | 360 | 0.0 | 0.0 | 0.00 | 0.00 | 0.00 | 87 | 1013.6 |
| 20260901084034 | 7 | 360 | 0.0 | 0.0 | 0.00 | 0.00 | 0.00 | 87 | 1013.5 |
| 20260901083032 | 6 | 360 | 0.0 | 0.0 | 0.00 | 0.00 | 0.00 | 86 | 1013.2 |
| 20260901082531 | 6 | 360 | 0.0 | 0.0 | 0.00 | 0.00 | 0.00 | 86 | 1013.1 |
| 20260901082032 | 6 | 360 | 0.0 | 0.0 | 0.00 | 0.00 | 0.00 | 85 | 1013.1 |
| 20260901081538 | 6 | 360 | 0.0 | 0.0 | 0.00 | 0.00 | 0.00 | 85 | 1013.2 |
| 20260901081030 | 7 | 360 | 0.0 | 0.0 | 0.00 | 0.00 | 0.00 | 84 | 1013.1 |
| 20260901080531 | 7 | 360 | 0.0 | 0.0 | 0.00 | 0.00 | 0.00 | 84 | 1013.2 |
| 20260901080030 | 7 | 360 | 0.0 | 0.0 | 0.00 | 0.00 | 0.00 | 84 | 1013.2 |
| 20260901075527 | 7 | 360 | 0.0 | 0.0 | 0.00 | 0.00 | 0.00 | 85 | 1013.2 |
| 20260901075028 | 7 | 360 | 0.0 | 0.0 | 0.00 | 0.00 | 0.00 | 84 | 1013.2 |
| 20260901074526 | 7 | 360 | 0.0 | 0.0 | 0.00 | 0.00 | 0.00 | 83 | 1013.2 |
| 20260901074025 | 7 | 360 | 0.0 | 0.0 | 0.00 | 0.00 | 0.00 | 84 | 1013.3 |
| 20260901073027 | 7 | 360 | 1.6 | 0.0 | 0.00 | 0.00 | 0.00 | 85 | 1013.3 |
| 20260901072525 | 7 | 360 | 1.6 | 0.0 | 0.00 | 0.00 | 0.00 | 84 | 1013.3 |
| 20260901072024 | 7 | 360 | 3.2 | 0.0 | 0.00 | 0.00 | 0.00 | 83 | 1013.3 |
| 20260901071525 | 7 | 360 | 1.6 | 0.0 | 0.00 | 0.00 | 0.00 | 82 | 1013.3 |
| 20260901071022 | 7 | 360 | 1.6 | 0.0 | 0.00 | 0.00 | 0.00 | 82 | 1013.2 |
| 20260901070520 | 8 | 360 | 1.6 | 0.0 | 0.00 | 0.00 | 0.00 | 82 | 1013.1 |
| 20260901070022 | 8 | 360 | 3.2 | 0.0 | 0.00 | 0.00 | 0.00 | 82 | 1013.1 |
| 20260901065521 | 8 | 360 | 3.2 | 0.0 | 0.00 | 0.00 | 0.00 | 81 | 1013.0 |
| 20260901065020 | 8 | 360 | 1.6 | 0.0 | 0.00 | 0.00 | 0.00 | 80 | 1013.1 |
| 20260901064523 | 8 | 360 | 1.6 | 0.0 | 0.00 | 0.00 | 0.00 | 80 | 1013.1 |
| 20260901064018 | 8 | 360 | 0.0 | 0.0 | 0.00 | 0.00 | 0.00 | 79 | 1013.2 |
| 20260901063027 | 9 | 360 | 0.0 | 0.0 | 0.00 | 0.00 | 0.00 | 78 | 1012.9 |
| 20260901062519 | 9 | 360 | 1.6 | 0.0 | 0.00 | 0.00 | 0.00 | 78 | 1012.8 |
| 20260901062013 | 10 | 360 | 1.6 | 0.0 | 0.00 | 0.00 | 0.00 | 77 | 1012.9 |
| 20260901061512 | 10 | 360 | 1.6 | 0.0 | 0.00 | 0.00 | 0.00 | 77 | 1012.9 |
| 20260901061010 | 10 | 360 | 3.2 | 0.0 | 0.00 | 0.00 | 0.00 | 77 | 1012.9 |
| 20260901060512 | 10 | 360 | 3.2 | 0.0 | 0.00 | 0.00 | 0.00 | 76 | 1012.8 |
| 20260901060010 | 10 | 360 | 0.0 | 0.0 | 0.00 | 0.00 | 0.00 | 76 | 1012.7 |
| 20260901055508 | 10 | 360 | 0.0 | 0.0 | 0.00 | 0.00 | 0.00 | 77 | 1012.5 |
| 20260901055009 | 10 | 360 | 0.0 | 0.0 | 0.00 | 0.00 | 0.00 | 76 | 1012.6 |
| 20260901054520 | 10 | 360 | 0.0 | 0.0 | 0.00 | 0.00 | 0.00 | 76 | 1012.5 |
| 20260901054008 | 10 | 360 | 0.0 | 0.0 | 0.00 | 0.00 | 0.00 | 76 | 1012.3 |
| 20260901053010 | 10 | 360 | 0.0 | 0.0 | 0.00 | 0.00 | 0.00 | 74 | 1012.1 |
| 20260901052508 | 11 | 360 | 0.0 | 0.0 | 0.00 | 0.00 | 0.00 | 75 | 1012.1 |
| 20260901052008 | 11 | 360 | 0.0 | 0.0 | 0.00 | 0.00 | 0.00 | 76 | 1012.3 |
| 20260901051508 | 11 | 360 | 0.0 | 0.0 | 0.00 | 0.00 | 0.00 | 76 | 1012.2 |
| 20260901051011 | 11 | 360 | 0.0 | 0.0 | 0.00 | 0.00 | 0.00 | 77 | 1012.1 |
| 20260901050509 | 10 | 360 | 0.0 | 0.0 | 0.00 | 0.00 | 0.00 | 77 | 1012.1 |
| 20260901050007 | 10 | 360 | 0.0 | 0.0 | 0.00 | 0.00 | 0.00 | 76 | 1012.0 |
| 20260901045507 | 10 | 360 | 0.0 | 0.0 | 0.00 | 0.00 | 0.00 | 75 | 1012.0 |
| 20260901045009 | 10 | 360 | 0.0 | 0.0 | 0.00 | 0.00 | 0.00 | 75 | 1012.4 |
| 20260901044507 | 10 | 360 | 0.0 | 0.0 | 0.00 | 0.00 | 0.00 | 74 | 1012.4 |
| 20260901044007 | 10 | 360 | 1.6 | 0.0 | 0.00 | 0.00 | 0.00 | 72 | 1012.4 |
| 20260901043010 | 11 | 360 | 1.6 | 0.0 | 0.00 | 0.00 | 0.00 | 70 | 1012.4 |
| 20260901042508 | 12 | 360 | 1.6 | 0.0 | 0.00 | 0.00 | 0.00 | 69 | 1012.5 |
| 20260901042007 | 12 | 360 | 1.6 | 0.0 | 0.00 | 0.00 | 0.00 | 68 | 1012.4 |
| 20260901041507 | 12 | 360 | 0.0 | 0.0 | 0.00 | 0.00 | 0.00 | 66 | 1012.4 |
| 20260901041007 | 13 | 360 | 1.6 | 0.0 | 0.00 | 0.00 | 0.00 | 65 | 1012.5 |
| 20260901040507 | 13 | 360 | 1.6 | 0.0 | 0.00 | 0.00 | 0.00 | 63 | 1012.5 |
| 20260901040007 | 14 | 360 | 1.6 | 0.0 | 0.00 | 0.00 | 0.00 | 62 | 1012.5 |
| 20260901035509 | 15 | 360 | 1.6 | 0.0 | 0.00 | 0.00 | 0.00 | 62 | 1012.5 |
| 20260901035007 | 15 | 360 | 3.2 | 0.0 | 0.00 | 0.00 | 0.00 | 61 | 1012.4 |
| 20260901034512 | 15 | 360 | 3.2 | 0.0 | 0.00 | 0.00 | 0.00 | 62 | 1012.4 |
| 20260901034005 | 15 | 360 | 3.2 | 0.0 | 0.00 | 0.00 | 0.00 | 62 | 1012.4 |
| 20260901033007 | 15 | 360 | 3.2 | 0.0 | 0.00 | 0.00 | 0.00 | 61 | 1012.2 |
| 20260901032504 | 15 | 360 | 4.8 | 0.0 | 0.00 | 0.00 | 0.00 | 60 | 1012.1 |
| 20260901032004 | 15 | 360 | 4.8 | 0.0 | 0.00 | 0.00 | 0.00 | 58 | 1012.1 |
| 20260901031508 | 16 | 360 | 4.8 | 0.0 | 0.00 | 0.00 | 0.00 | 57 | 1012.0 |
| 20260901031003 | 16 | 360 | 4.8 | 0.0 | 0.00 | 0.00 | 0.00 | 56 | 1012.1 |
| 20260901030502 | 17 | 360 | 4.8 | 0.0 | 0.00 | 0.00 | 0.00 | 54 | 1012.0 |
| 20260901030003 | 17 | 360 | 4.8 | 0.0 | 0.00 | 0.00 | 0.00 | 55 | 1011.9 |
| 20260901025502 | 17 | 360 | 3.2 | 0.0 | 0.00 | 0.00 | 0.00 | 54 | 1011.9 |
| 20260901025003 | 17 | 360 | 1.6 | 0.0 | 0.00 | 0.00 | 0.00 | 53 | 1011.9 |
| 20260901024502 | 17 | 360 | 1.6 | 0.0 | 0.00 | 0.00 | 0.00 | 54 | 1011.8 |
| 20260901024004 | 17 | 360 | 0.0 | 0.0 | 0.00 | 0.00 | 0.00 | 54 | 1011.6 |
| 20260901023005 | 18 | 360 | 1.6 | 0.0 | 0.00 | 0.00 | 0.00 | 52 | 1011.4 |
| 20260901022602 | 18 | 360 | 0.0 | 0.0 | 0.00 | 0.00 | 0.00 | 51 | 1011.3 |
| 20260901022100 | 18 | 360 | 1.6 | 0.0 | 0.00 | 0.00 | 0.00 | 50 | 1011.3 |
| 20260901021601 | 19 | 360 | 3.2 | 0.0 | 0.00 | 0.00 | 0.00 | 50 | 1011.1 |
| 20260901021057 | 19 | 360 | 3.2 | 0.0 | 0.00 | 0.00 | 0.00 | 49 | 1011.0 |
| 20260901020600 | 20 | 360 | 4.8 | 0.0 | 0.00 | 0.00 | 0.00 | 48 | 1010.9 |
| 20260901020057 | 20 | 360 | 4.8 | 0.0 | 0.00 | 0.00 | 0.00 | 48 | 1010.9 |
| 20260901015558 | 20 | 360 | 4.8 | 0.0 | 0.00 | 0.00 | 0.00 | 46 | 1010.7 |
| 20260901015056 | 21 | 360 | 4.8 | 0.0 | 0.00 | 0.00 | 0.00 | 45 | 1010.7 |
| 20260901014556 | 21 | 360 | 6.4 | 0.0 | 0.00 | 0.00 | 0.00 | 45 | 1010.6 |
| 20260901014055 | 21 | 360 | 8.0 | 0.0 | 0.00 | 0.00 | 0.00 | 44 | 1010.4 |
| 20260901013109 | 22 | 360 | 11.3 | 0.0 | 0.00 | 0.00 | 0.00 | 42 | 1010.4 |
| 20260901012552 | 22 | 360 | 12.9 | 0.0 | 0.00 | 0.00 | 0.00 | 41 | 1010.2 |
| 20260901012052 | 23 | 296 | 12.9 | 0.0 | 0.00 | 0.00 | 0.00 | 41 | 1010.2 |
| 20260901011556 | 23 | 360 | 11.3 | 0.0 | 0.00 | 0.00 | 0.00 | 40 | 1010.0 |
| 20260901011051 | 23 | 360 | 12.9 | 0.0 | 0.00 | 0.00 | 0.00 | 39 | 1010.0 |
| 20260901010551 | 23 | 286 | 17.7 | 0.0 | 0.00 | 0.00 | 0.00 | 39 | 1010.0 |
| 20260901010052 | 24 | 288 | 22.5 | 0.0 | 0.00 | 0.00 | 0.00 | 38 | 1009.9 |
| 20260901005554 | 24 | 293 | 22.5 | 0.0 | 0.00 | 0.00 | 0.00 | 38 | 1009.9 |
| 20260901005050 | 24 | 305 | 20.9 | 0.0 | 0.00 | 0.00 | 0.00 | 38 | 1009.8 |
| 20260901004554 | 24 | 285 | 20.9 | 0.0 | 0.00 | 0.00 | 0.00 | 38 | 1009.9 |
| 20260901004050 | 24 | 309 | 22.5 | 0.0 | 0.00 | 0.00 | 0.00 | 37 | 1009.9 |
| 20260901003051 | 25 | 295 | 22.5 | 0.0 | 0.00 | 0.00 | 0.00 | 36 | 1009.9 |
| 20260901002551 | 25 | 287 | 25.7 | 0.0 | 0.00 | 0.00 | 0.00 | 36 | 1009.8 |
| 20260901002051 | 25 | 282 | 25.7 | 0.0 | 0.00 | 0.00 | 0.00 | 36 | 1009.9 |
| 20260901001551 | 25 | 287 | 25.7 | 0.0 | 0.00 | 0.00 | 0.00 | 37 | 1009.9 |
| 20260901001050 | 25 | 291 | 25.7 | 0.0 | 0.00 | 0.00 | 0.00 | 36 | 1009.8 |
| 20260901000550 | 25 | 291 | 25.7 | 0.0 | 0.00 | 0.00 | 0.00 | 35 | 1009.7 |
| 20260901000049 | 25 | 275 | 25.7 | 0.0 | 0.00 | 0.00 | 0.00 | 35 | 1009.7 |
| 20260831235549 | 25 | 290 | 24.1 | 0.0 | 0.00 | 0.00 | 0.00 | 35 | 1009.7 |
| 20260831235049 | 26 | 290 | 24.1 | 0.0 | 0.00 | 0.00 | 0.00 | 35 | 1009.7 |
| 20260831234555 | 26 | 360 | 24.1 | 0.0 | 0.00 | 0.00 | 0.00 | 35 | 1009.6 |